Previsão horária em Abano Terme

Hoje, 30 Setembro, Quarta-feira

Tempo Temperatura Precipitação Vento Pressão Humidade
00:00 +16°C° 0 mm 2 m/s 762 mmHg 79%
01:00 +15°C° 0 mm 2 m/s 762 mmHg 79%
02:00 +15°C° 0 mm 2 m/s 761 mmHg 79%
03:00 +15°C° 0 mm 2 m/s 761 mmHg 80%
04:00 +14°C° 0 mm 1 m/s 761 mmHg 81%
05:00 +14°C° 0 mm 1 m/s 761 mmHg 81%
06:00 +14°C° 0 mm 1 m/s 761 mmHg 81%
07:00 +14°C° 0 mm 1 m/s 761 mmHg 81%
08:00 +16°C° 0 mm 1 m/s 761 mmHg 75%
09:00 +19°C° 0 mm 1 m/s 760 mmHg 70%
10:00 +20°C° 0 mm 1 m/s 760 mmHg 65%
11:00 +21°C° 0 mm 1 m/s 760 mmHg 62%
12:00 +22°C° 0 mm 1 m/s 759 mmHg 59%
13:00 +23°C° 0 mm 1 m/s 759 mmHg 56%
14:00 +23°C° 0 mm 1 m/s 758 mmHg 56%
15:00 +23°C° 0 mm 1 m/s 758 mmHg 56%
16:00 +23°C° 0 mm 1 m/s 758 mmHg 56%
17:00 +21°C° 0 mm 2 m/s 758 mmHg 63%
18:00 +19°C° 0 mm 2 m/s 758 mmHg 69%
19:00 +18°C° 0 mm 2 m/s 758 mmHg 75%
20:00 +19°C° 0 mm 1 m/s 758 mmHg 78%
21:00 +18°C° 0 mm 1 m/s 758 mmHg 80%
22:00 +18°C° 0 mm 1 m/s 758 mmHg 83%
23:00 +16°C° 0 mm 1 m/s 758 mmHg 84%

Amanhã, 1 Outubro, Quinta-feira

Tempo Temperatura Precipitação Vento Pressão Humidade
00:00 +16°C° 0 mm 1 m/s 758 mmHg 85%
01:00 +16°C° 0 mm 1 m/s 757 mmHg 86%
02:00 +15°C° 0 mm 1 m/s 757 mmHg 87%
03:00 +15°C° 0 mm 1 m/s 756 mmHg 88%
04:00 +15°C° 0 mm 1 m/s 756 mmHg 88%
05:00 +15°C° 0 mm 1 m/s 756 mmHg 89%
06:00 +15°C° 0 mm 1 m/s 756 mmHg 89%
07:00 +15°C° 0 mm 1 m/s 755 mmHg 89%
08:00 +16°C° 0 mm 1 m/s 755 mmHg 83%
09:00 +19°C° 0 mm 1 m/s 755 mmHg 77%
10:00 +20°C° 0 mm 1 m/s 755 mmHg 70%
11:00 +21°C° 0 mm 1 m/s 755 mmHg 67%
12:00 +22°C° 0 mm 1 m/s 754 mmHg 63%
13:00 +23°C° 0 mm 2 m/s 754 mmHg 59%
14:00 +23°C° 0 mm 1 m/s 754 mmHg 58%
15:00 +23°C° 0 mm 1 m/s 753 mmHg 58%
16:00 +23°C° 0 mm 1 m/s 753 mmHg 57%
17:00 +22°C° 0 mm 1 m/s 753 mmHg 62%
18:00 +21°C° 0 mm 1 m/s 753 mmHg 67%
19:00 +20°C° 0 mm 1 m/s 753 mmHg 73%
20:00 +20°C° 0 mm 1 m/s 754 mmHg 74%
21:00 +19°C° 0 mm 1 m/s 754 mmHg 75%
22:00 +19°C° 0 mm 1 m/s 754 mmHg 77%
23:00 +19°C° 0 mm 1 m/s 753 mmHg 79%

Depois de amanhã, 2 Outubro, Sexta-feira

Tempo Temperatura Precipitação Vento Pressão Humidade
00:00 +18°C° 0 mm 1 m/s 753 mmHg 81%
01:00 +17°C° 0 mm 2 m/s 753 mmHg 83%
02:00 +17°C° 0 mm 2 m/s 753 mmHg 85%
03:00 +16°C° 0 mm 2 m/s 752 mmHg 87%
04:00 +16°C° 0 mm 1 m/s 752 mmHg 89%
05:00 +16°C° 1 mm 2 m/s 752 mmHg 90%
06:00 +16°C° 1 mm 2 m/s 752 mmHg 90%
07:00 +16°C° 1 mm 3 m/s 752 mmHg 91%
08:00 +17°C° 0.6 mm 3 m/s 752 mmHg 89%
09:00 +17°C° 0.6 mm 3 m/s 751 mmHg 86%
10:00 +18°C° 0.6 mm 3 m/s 751 mmHg 84%
11:00 +18°C° 0.2 mm 4 m/s 751 mmHg 81%
12:00 +19°C° 0.2 mm 4 m/s 751 mmHg 79%
13:00 +20°C° 0.2 mm 4 m/s 751 mmHg 76%
14:00 +20°C° 0.1 mm 4 m/s 751 mmHg 74%
15:00 +20°C° 0.1 mm 4 m/s 751 mmHg 73%
16:00 +21°C° 0.1 mm 3 m/s 751 mmHg 72%
17:00 +20°C° 0.1 mm 3 m/s 751 mmHg 75%
18:00 +19°C° 0.1 mm 3 m/s 751 mmHg 79%
19:00 +18°C° 0.1 mm 3 m/s 751 mmHg 82%
20:00 +18°C° 0.1 mm 3 m/s 751 mmHg 83%
21:00 +18°C° 0.1 mm 3 m/s 751 mmHg 84%
22:00 +18°C° 0.1 mm 3 m/s 751 mmHg 85%
23:00 +18°C° 0.1 mm 3 m/s 751 mmHg 85%

3 Outubro, Sábado

Tempo Temperatura Precipitação Vento Pressão Humidade
00:00 +18°C° 0.1 mm 3 m/s 750 mmHg 85%
01:00 +18°C° 0.1 mm 3 m/s 750 mmHg 85%
02:00 +18°C° 0.1 mm 4 m/s 750 mmHg 85%
03:00 +18°C° 0.1 mm 4 m/s 749 mmHg 84%
04:00 +18°C° 0.1 mm 4 m/s 749 mmHg 84%
05:00 +19°C° 0.1 mm 4 m/s 749 mmHg 83%
06:00 +19°C° 0.1 mm 4 m/s 749 mmHg 82%
07:00 +19°C° 0.1 mm 4 m/s 748 mmHg 81%
08:00 +19°C° 0.4 mm 5 m/s 748 mmHg 81%
09:00 +20°C° 0.4 mm 6 m/s 748 mmHg 80%
10:00 +20°C° 0.4 mm 6 m/s 748 mmHg 80%
11:00 +20°C° 0.5 mm 7 m/s 748 mmHg 79%
12:00 +21°C° 0.5 mm 7 m/s 748 mmHg 79%
13:00 +21°C° 0.5 mm 7 m/s 747 mmHg 78%
14:00 +20°C° 1.1 mm 6 m/s 747 mmHg 79%
15:00 +20°C° 1.1 mm 5 m/s 747 mmHg 80%
16:00 +19°C° 1.1 mm 4 m/s 747 mmHg 80%
17:00 +18°C° 1 mm 3 m/s 747 mmHg 81%
18:00 +17°C° 1 mm 3 m/s 748 mmHg 81%
19:00 +16°C° 1 mm 3 m/s 748 mmHg 82%
20:00 +14°C° 0.1 mm 3 m/s 749 mmHg 81%
21:00 +14°C° 0.1 mm 3 m/s 750 mmHg 81%
22:00 +13°C° 0.1 mm 3 m/s 751 mmHg 80%
23:00 +14°C° 0 mm 2 m/s 751 mmHg 79%

4 Outubro, Domingo

Tempo Temperatura Precipitação Vento Pressão Humidade
00:00 +14°C° 0 mm 2 m/s 751 mmHg 78%
01:00 +14°C° 0 mm 2 m/s 752 mmHg 77%
02:00 +14°C° 0 mm 2 m/s 752 mmHg 78%
03:00 +14°C° 0 mm 2 m/s 752 mmHg 79%
04:00 +14°C° 0 mm 2 m/s 752 mmHg 80%
05:00 +13°C° 0 mm 2 m/s 752 mmHg 81%
06:00 +13°C° 0 mm 2 m/s 753 mmHg 83%
07:00 +13°C° 0 mm 2 m/s 753 mmHg 85%
08:00 +15°C° 0 mm 2 m/s 753 mmHg 79%
09:00 +16°C° 0 mm 1 m/s 753 mmHg 72%
10:00 +19°C° 0 mm 1 m/s 753 mmHg 66%
11:00 +19°C° 0 mm 2 m/s 753 mmHg 61%
12:00 +20°C° 0 mm 2 m/s 753 mmHg 55%
13:00 +23°C° 0 mm 2 m/s 753 mmHg 49%
14:00 +21°C° 0.2 mm 2 m/s 753 mmHg 51%
15:00 +21°C° 0.2 mm 2 m/s 753 mmHg 53%
16:00 +21°C° 0.2 mm 2 m/s 752 mmHg 55%
17:00 +20°C° 0.2 mm 3 m/s 752 mmHg 59%
18:00 +19°C° 0.2 mm 3 m/s 752 mmHg 62%
19:00 +18°C° 0.2 mm 4 m/s 752 mmHg 65%
20:00 +17°C° 0.2 mm 3 m/s 752 mmHg 67%
21:00 +17°C° 0.2 mm 3 m/s 752 mmHg 68%
22:00 +17°C° 0.2 mm 3 m/s 751 mmHg 69%
23:00 +16°C° 2.6 mm 3 m/s 751 mmHg 76%

5 Outubro, Segunda-feira

Tempo Temperatura Precipitação Vento Pressão Humidade
00:00 +16°C° 2.6 mm 3 m/s 751 mmHg 82%
01:00 +14°C° 2.6 mm 4 m/s 751 mmHg 89%
02:00 +14°C° 0.5 mm 3 m/s 750 mmHg 88%
03:00 +14°C° 0.5 mm 3 m/s 750 mmHg 87%
04:00 +15°C° 0.5 mm 2 m/s 750 mmHg 86%
05:00 +15°C° 0.1 mm 2 m/s 750 mmHg 86%
06:00 +15°C° 0.1 mm 2 m/s 750 mmHg 87%
07:00 +14°C° 0.1 mm 1 m/s 750 mmHg 87%
08:00 +16°C° 0.3 mm 1 m/s 750 mmHg 81%
09:00 +17°C° 0.3 mm 2 m/s 751 mmHg 74%
10:00 +18°C° 0.3 mm 2 m/s 751 mmHg 67%
11:00 +19°C° 0.2 mm 2 m/s 751 mmHg 61%
12:00 +20°C° 0.2 mm 3 m/s 751 mmHg 54%
13:00 +21°C° 0.2 mm 3 m/s 751 mmHg 48%
14:00 +21°C° 0.1 mm 3 m/s 751 mmHg 49%
15:00 +21°C° 0.1 mm 3 m/s 751 mmHg 50%
16:00 +21°C° 0.1 mm 2 m/s 751 mmHg 52%
17:00 +19°C° 0.2 mm 2 m/s 751 mmHg 57%
18:00 +18°C° 0.2 mm 2 m/s 752 mmHg 62%
19:00 +16°C° 0.2 mm 2 m/s 752 mmHg 67%
20:00 +16°C° 0 mm 1 m/s 753 mmHg 70%
21:00 +15°C° 0 mm 1 m/s 753 mmHg 72%
22:00 +14°C° 0 mm 1 m/s 753 mmHg 75%
23:00 +14°C° 0 mm 1 m/s 753 mmHg 76%
Mostrar mais